Tracking 30743 objects as of 20-Jun-2025
HD Live streaming from Space Station
objects crossing your sky now

STARLINK-4214

Track STARLINK-4214 now!
10-day predictions
STARLINK-4214 is classified as:


NORAD ID: 52877
Int'l Code: 2022-062AZ
Perigee: 546.0 km
Apogee: 547.8 km
Inclination: 53.2 °
Period: 95.4 minutes
Semi major axis: 6917 km
RCS: Unknown
Launch date: June 17, 2022
Source: United States (US)
Launch site: AIR FORCE EASTERN TEST RANGE (AFETR)
Your satellite tracking list
Your tracking list is empty




NASA's NSSDC Master Catalog

Two Line Element Set (TLE):
1 52877U 22062AZ  25170.55438250  .00000177  00000-0  29247-4 0  9991
2 52877  53.2169 115.3887 0001327  84.7729 275.3415 15.08826683166344
Source of the keplerian elements: AFSPC